Time,TemperatureF,DewpointF,PressureIn,WindDirection,WindDirectionDegrees,WindSpeedMPH,WindSpeedGustMPH,Humidity,HourlyPrecipIn,Conditions,Clouds,dailyrainin,SoftwareType,DateUTC
2013-09-06 00:00:00,66.2,57.3,30.20,SSW,200,2.0,2.0,73,0.00,,,0.00,Wunderground v.1.15,2013-09-06 04:00:00,
2013-09-06 00:05:00,66.3,57.4,30.20,SSE,158,2.0,5.0,73,0.00,,,0.00,Wunderground v.1.15,2013-09-06 04:05:00,
2013-09-06 00:15:00,66.3,57.0,30.19,SSE,158,1.0,5.0,72,0.00,,,0.00,Wunderground v.1.15,2013-09-06 04:15:00,
2013-09-06 00:20:00,66.3,57.0,30.19,SSE,158,1.0,5.0,72,0.00,,,0.00,Wunderground v.1.15,2013-09-06 04:20:00,
2013-09-06 00:25:00,66.3,57.0,30.19,SSE,158,1.0,5.0,72,0.00,,,0.00,Wunderground v.1.15,2013-09-06 04:25:00,
2013-09-06 00:30:00,66.3,57.0,30.20,SSE,158,1.0,5.0,72,0.00,,,0.00,Wunderground v.1.15,2013-09-06 04:30:00,
2013-09-06 00:35:00,66.3,57.0,30.19,SSE,158,1.0,5.0,72,0.00,,,0.00,Wunderground v.1.15,2013-09-06 04:35:00,
2013-09-06 00:40:00,66.1,57.2,30.19,SSE,158,1.0,5.0,73,0.00,,,0.00,Wunderground v.1.15,2013-09-06 04:40:00,
2013-09-06 00:45:00,66.0,57.5,30.20,SSE,158,1.0,5.0,74,0.00,,,0.00,Wunderground v.1.15,2013-09-06 04:45:00,
2013-09-06 00:50:00,65.9,57.0,30.19,SSE,158,0.0,5.0,73,0.00,,,0.00,Wunderground v.1.15,2013-09-06 04:50:00,
2013-09-06 00:55:00,65.8,56.9,30.19,SSE,158,1.0,5.0,73,0.00,,,0.00,Wunderground v.1.15,2013-09-06 04:55:00,
2013-09-06 01:00:00,65.8,57.3,30.19,SSE,158,1.0,5.0,74,0.00,,,0.00,Wunderground v.1.15,2013-09-06 05:00:00,
2013-09-06 01:05:00,65.8,57.3,30.19,SSE,158,1.0,5.0,74,0.00,,,0.00,Wunderground v.1.15,2013-09-06 05:05:00,
2013-09-06 01:10:00,65.7,56.8,30.20,SSE,158,1.0,5.0,73,0.00,,,0.00,Wunderground v.1.15,2013-09-06 05:10:00,
2013-09-06 01:15:00,65.7,57.2,30.20,SSE,160,1.0,5.0,74,0.00,,,0.00,Wunderground v.1.15,2013-09-06 05:15:00,
2013-09-06 01:20:00,65.7,57.2,30.20,SSE,160,1.0,5.0,74,0.00,,,0.00,Wunderground v.1.15,2013-09-06 05:20:00,
2013-09-06 01:25:00,65.7,57.6,30.20,SSE,148,1.0,5.0,75,0.00,,,0.00,Wunderground v.1.15,2013-09-06 05:25:00,
2013-09-06 01:30:00,65.6,57.5,30.20,SSE,148,1.0,5.0,75,0.00,,,0.00,Wunderground v.1.15,2013-09-06 05:30:00,
2013-09-06 01:35:00,65.4,57.3,30.20,SSE,148,1.0,5.0,75,0.00,,,0.00,Wunderground v.1.15,2013-09-06 05:35:00,
2013-09-06 01:40:00,65.4,57.6,30.19,SSE,148,1.0,1.0,76,0.00,,,0.00,Wunderground v.1.15,2013-09-06 05:40:00,
2013-09-06 01:45:00,65.3,57.5,30.19,SSE,149,1.0,5.0,76,0.00,,,0.00,Wunderground v.1.15,2013-09-06 05:45:00,
2013-09-06 01:50:00,65.3,57.5,30.20,SSE,149,1.0,1.0,76,0.00,,,0.00,Wunderground v.1.15,2013-09-06 05:50:00,
2013-09-06 01:55:00,65.2,57.8,30.19,SSE,149,0.0,5.0,77,0.00,,,0.00,Wunderground v.1.15,2013-09-06 05:55:00,
2013-09-06 02:00:00,65.0,57.6,30.19,SSE,149,0.0,5.0,77,0.00,,,0.00,Wunderground v.1.15,2013-09-06 06:00:00,
2013-09-06 02:10:00,64.7,58.0,30.20,SSE,149,0.0,5.0,79,0.00,,,0.00,Wunderground v.1.15,2013-09-06 06:10:00,
2013-09-06 02:15:00,64.3,58.0,30.20,SSE,149,0.0,5.0,80,0.00,,,0.00,Wunderground v.1.15,2013-09-06 06:15:00,
2013-09-06 02:20:00,64.1,57.8,30.20,SSE,149,0.0,5.0,80,0.00,,,0.00,Wunderground v.1.15,2013-09-06 06:20:00,
2013-09-06 02:25:00,64.0,57.4,30.19,SSE,149,0.0,5.0,79,0.00,,,0.00,Wunderground v.1.15,2013-09-06 06:25:00,
2013-09-06 02:30:00,64.0,58.1,30.20,SSE,149,0.0,5.0,81,0.00,,,0.00,Wunderground v.1.15,2013-09-06 06:30:00,
2013-09-06 02:35:00,63.9,58.0,30.20,SSE,149,0.0,5.0,81,0.00,,,0.00,Wunderground v.1.15,2013-09-06 06:35:00,
2013-09-06 02:40:00,63.9,57.6,30.20,SSE,149,0.0,5.0,80,0.00,,,0.00,Wunderground v.1.15,2013-09-06 06:40:00,
2013-09-06 02:45:00,64.1,57.8,30.19,SSE,149,0.0,5.0,80,0.00,,,0.00,Wunderground v.1.15,2013-09-06 06:45:00,
2013-09-06 02:50:00,64.2,57.5,30.19,SSE,159,1.0,1.0,79,0.00,,,0.00,Wunderground v.1.15,2013-09-06 06:50:00,
2013-09-06 02:55:00,64.2,57.5,30.19,SSE,162,1.0,5.0,79,0.00,,,0.00,Wunderground v.1.15,2013-09-06 06:55:00,
2013-09-06 03:00:00,64.1,57.8,30.19,SSE,162,0.0,5.0,80,0.00,,,0.00,Wunderground v.1.15,2013-09-06 07:00:00,
2013-09-06 03:05:00,63.9,58.0,30.19,SSE,162,0.0,5.0,81,0.00,,,0.00,Wunderground v.1.15,2013-09-06 07:05:00,
2013-09-06 03:10:00,63.6,57.7,30.19,SSE,162,0.0,5.0,81,0.00,,,0.00,Wunderground v.1.15,2013-09-06 07:10:00,
2013-09-06 03:15:00,63.4,57.8,30.19,SSE,162,0.0,5.0,82,0.00,,,0.00,Wunderground v.1.15,2013-09-06 07:15:00,
2013-09-06 03:20:00,63.4,57.5,30.19,SSE,162,0.0,5.0,81,0.00,,,0.00,Wunderground v.1.15,2013-09-06 07:20:00,
2013-09-06 03:25:00,63.2,57.9,30.19,SSE,162,0.0,5.0,83,0.00,,,0.00,Wunderground v.1.15,2013-09-06 07:25:00,
2013-09-06 03:30:00,63.0,57.8,30.19,SSE,162,0.0,5.0,83,0.00,,,0.00,Wunderground v.1.15,2013-09-06 07:30:00,
2013-09-06 03:35:00,62.7,57.8,30.19,SSE,162,0.0,5.0,84,0.00,,,0.00,Wunderground v.1.15,2013-09-06 07:35:00,
2013-09-06 03:40:00,62.5,57.6,30.19,SSE,162,0.0,5.0,84,0.00,,,0.00,Wunderground v.1.15,2013-09-06 07:40:00,
2013-09-06 03:45:00,62.3,57.7,30.19,SSE,162,0.0,5.0,85,0.00,,,0.00,Wunderground v.1.15,2013-09-06 07:45:00,
2013-09-06 03:50:00,62.3,57.7,30.19,SSE,162,0.0,5.0,85,0.00,,,0.00,Wunderground v.1.15,2013-09-06 07:50:00,
2013-09-06 03:55:00,62.3,57.7,30.19,SSE,162,0.0,5.0,85,0.00,,,0.00,Wunderground v.1.15,2013-09-06 07:55:00,
2013-09-06 04:00:00,62.5,57.6,30.19,SSE,162,0.0,5.0,84,0.00,,,0.00,Wunderground v.1.15,2013-09-06 08:00:00,
2013-09-06 04:10:00,62.7,57.8,30.19,SSE,162,0.0,5.0,84,0.00,,,0.00,Wunderground v.1.15,2013-09-06 08:10:00,
2013-09-06 04:15:00,62.7,57.5,30.19,SSE,162,0.0,5.0,83,0.00,,,0.00,Wunderground v.1.15,2013-09-06 08:15:00,
2013-09-06 04:20:00,63.0,58.1,30.19,SSE,162,0.0,5.0,84,0.00,,,0.00,Wunderground v.1.15,2013-09-06 08:20:00,
2013-09-06 04:25:00,63.0,57.8,30.19,SSE,162,0.0,5.0,83,0.00,,,0.00,Wunderground v.1.15,2013-09-06 08:25:00,
2013-09-06 04:30:00,63.0,58.1,30.19,SSE,162,0.0,5.0,84,0.00,,,0.00,Wunderground v.1.15,2013-09-06 08:30:00,
2013-09-06 04:35:00,62.9,58.0,30.19,SSE,162,0.0,5.0,84,0.00,,,0.00,Wunderground v.1.15,2013-09-06 08:35:00,
2013-09-06 04:40:00,62.7,57.8,30.19,SSE,162,0.0,5.0,84,0.00,,,0.00,Wunderground v.1.15,2013-09-06 08:40:00,
2013-09-06 04:45:00,62.6,58.0,30.19,SSE,162,0.0,5.0,85,0.00,,,0.00,Wunderground v.1.15,2013-09-06 08:45:00,
2013-09-06 04:50:00,62.4,58.2,30.19,SSE,162,0.0,5.0,86,0.00,,,0.00,Wunderground v.1.15,2013-09-06 08:50:00,
2013-09-06 04:55:00,62.2,58.3,30.19,SSE,162,0.0,5.0,87,0.00,,,0.00,Wunderground v.1.15,2013-09-06 08:55:00,
2013-09-06 05:00:00,62.0,58.1,30.19,SSE,162,0.0,5.0,87,0.00,,,0.00,Wunderground v.1.15,2013-09-06 09:00:00,
2013-09-06 05:05:00,61.8,58.2,30.19,SSE,162,0.0,5.0,88,0.00,,,0.00,Wunderground v.1.15,2013-09-06 09:05:00,
2013-09-06 05:10:00,61.6,58.0,30.19,SSE,162,0.0,5.0,88,0.00,,,0.00,Wunderground v.1.15,2013-09-06 09:10:00,
2013-09-06 05:15:00,61.4,58.1,30.19,SSE,162,0.0,5.0,89,0.00,,,0.00,Wunderground v.1.15,2013-09-06 09:15:00,
2013-09-06 05:20:00,61.2,57.9,30.19,SSE,162,0.0,5.0,89,0.00,,,0.00,Wunderground v.1.15,2013-09-06 09:20:00,
2013-09-06 05:25:00,61.1,57.8,30.19,SSE,162,0.0,5.0,89,0.00,,,0.00,Wunderground v.1.15,2013-09-06 09:25:00,
2013-09-06 05:30:00,61.3,58.0,30.19,SSE,162,0.0,5.0,89,0.00,,,0.00,Wunderground v.1.15,2013-09-06 09:30:00,
2013-09-06 05:35:00,61.3,58.0,30.19,SSE,162,0.0,5.0,89,0.00,,,0.00,Wunderground v.1.15,2013-09-06 09:35:00,
2013-09-06 05:40:00,61.2,57.9,30.19,SSE,162,0.0,5.0,89,0.00,,,0.00,Wunderground v.1.15,2013-09-06 09:40:00,
2013-09-06 05:50:00,61.3,57.7,30.19,SSE,162,0.0,5.0,88,0.00,,,0.00,Wunderground v.1.15,2013-09-06 09:50:00,
2013-09-06 05:55:00,61.3,57.7,30.20,SSE,162,0.0,5.0,88,0.00,,,0.00,Wunderground v.1.15,2013-09-06 09:55:00,
2013-09-06 06:00:00,61.3,58.0,30.20,SSE,162,0.0,5.0,89,0.00,,,0.00,Wunderground v.1.15,2013-09-06 10:00:00,
2013-09-06 06:10:00,61.4,57.8,30.20,SSE,162,0.0,5.0,88,0.00,,,0.00,Wunderground v.1.15,2013-09-06 10:10:00,
2013-09-06 06:15:00,61.6,57.7,30.20,SSE,162,0.0,5.0,87,0.00,,,0.00,Wunderground v.1.15,2013-09-06 10:15:00,
2013-09-06 06:20:00,61.7,58.1,30.20,SSE,162,0.0,5.0,88,0.00,,,0.00,Wunderground v.1.15,2013-09-06 10:20:00,
2013-09-06 06:25:00,61.5,57.9,30.20,SSE,162,0.0,5.0,88,0.00,,,0.00,Wunderground v.1.15,2013-09-06 10:25:00,
2013-09-06 06:30:00,61.4,57.5,30.21,SSE,162,0.0,5.0,87,0.00,,,0.00,Wunderground v.1.15,2013-09-06 10:30:00,
2013-09-06 06:35:00,61.4,57.8,30.21,SSE,162,0.0,5.0,88,0.00,,,0.00,Wunderground v.1.15,2013-09-06 10:35:00,
2013-09-06 06:40:00,61.3,57.7,30.21,SSE,162,0.0,5.0,88,0.00,,,0.00,Wunderground v.1.15,2013-09-06 10:40:00,
2013-09-06 06:45:00,61.4,57.5,30.21,SSE,162,0.0,5.0,87,0.00,,,0.00,Wunderground v.1.15,2013-09-06 10:45:00,
2013-09-06 06:55:00,61.3,57.7,30.21,SSE,162,0.0,5.0,88,0.00,,,0.00,Wunderground v.1.15,2013-09-06 10:55:00,
2013-09-06 07:00:00,60.9,57.3,30.22,SSE,162,0.0,5.0,88,0.00,,,0.00,Wunderground v.1.15,2013-09-06 11:00:00,
2013-09-06 07:05:00,60.7,57.4,30.22,SSE,162,0.0,5.0,89,0.00,,,0.00,Wunderground v.1.15,2013-09-06 11:05:00,
2013-09-06 07:10:00,60.5,57.2,30.22,SSE,162,0.0,5.0,89,0.00,,,0.00,Wunderground v.1.15,2013-09-06 11:10:00,
2013-09-06 07:15:00,60.4,57.1,30.22,SSE,162,0.0,5.0,89,0.00,,,0.00,Wunderground v.1.15,2013-09-06 11:15:00,
2013-09-06 07:20:00,60.2,56.9,30.22,SSE,162,0.0,5.0,89,0.00,,,0.00,Wunderground v.1.15,2013-09-06 11:20:00,
2013-09-06 07:25:00,59.9,57.0,30.22,SSE,162,0.0,5.0,90,0.00,,,0.00,Wunderground v.1.15,2013-09-06 11:25:00,
2013-09-06 07:30:00,59.7,57.1,30.22,SSE,162,0.0,5.0,91,0.00,,,0.00,Wunderground v.1.15,2013-09-06 11:30:00,
2013-09-06 07:35:00,59.6,57.3,30.22,SSE,162,0.0,5.0,92,0.00,,,0.00,Wunderground v.1.15,2013-09-06 11:35:00,
2013-09-06 07:40:00,59.6,57.3,30.22,SSE,162,0.0,5.0,92,0.00,,,0.00,Wunderground v.1.15,2013-09-06 11:40:00,
2013-09-06 07:45:00,59.7,57.4,30.23,SSE,162,0.0,5.0,92,0.00,,,0.00,Wunderground v.1.15,2013-09-06 11:45:00,
2013-09-06 07:50:00,59.8,57.5,30.23,SSE,162,0.0,5.0,92,0.00,,,0.00,Wunderground v.1.15,2013-09-06 11:50:00,
2013-09-06 07:55:00,59.9,57.6,30.23,SSE,162,0.0,5.0,92,0.00,,,0.00,Wunderground v.1.15,2013-09-06 11:55:00,
2013-09-06 08:00:00,59.8,57.5,30.23,SSE,162,0.0,5.0,92,0.00,,,0.00,Wunderground v.1.15,2013-09-06 12:00:00,
2013-09-06 08:10:00,60.0,58.0,30.23,SSE,162,0.0,5.0,93,0.00,,,0.00,Wunderground v.1.15,2013-09-06 12:10:00,
2013-09-06 08:15:00,60.1,57.8,30.23,SSE,162,0.0,5.0,92,0.00,,,0.00,Wunderground v.1.15,2013-09-06 12:15:00,
2013-09-06 08:20:00,60.3,58.0,30.23,SSE,162,0.0,5.0,92,0.00,,,0.00,Wunderground v.1.15,2013-09-06 12:20:00,
2013-09-06 08:25:00,60.5,57.9,30.23,SSE,162,0.0,5.0,91,0.00,,,0.00,Wunderground v.1.15,2013-09-06 12:25:00,
2013-09-06 08:30:00,60.8,58.2,30.23,SSE,162,0.0,5.0,91,0.00,,,0.00,Wunderground v.1.15,2013-09-06 12:30:00,
2013-09-06 08:35:00,61.1,58.1,30.24,SSE,162,0.0,5.0,90,0.00,,,0.00,Wunderground v.1.15,2013-09-06 12:35:00,
2013-09-06 08:40:00,61.3,58.0,30.23,SSE,162,0.0,5.0,89,0.00,,,0.00,Wunderground v.1.15,2013-09-06 12:40:00,
2013-09-06 08:45:00,61.6,58.6,30.24,SSE,162,0.0,5.0,90,0.00,,,0.00,Wunderground v.1.15,2013-09-06 12:45:00,
2013-09-06 08:50:00,61.6,58.3,30.24,SSE,162,0.0,5.0,89,0.00,,,0.00,Wunderground v.1.15,2013-09-06 12:50:00,
2013-09-06 08:55:00,61.7,58.4,30.24,SSE,162,0.0,5.0,89,0.00,,,0.00,Wunderground v.1.15,2013-09-06 12:55:00,
2013-09-06 09:00:00,61.8,58.5,30.24,SSE,162,0.0,5.0,89,0.00,,,0.00,Wunderground v.1.15,2013-09-06 13:00:00,
2013-09-06 09:05:00,61.9,58.6,30.24,SSE,162,0.0,5.0,89,0.00,,,0.00,Wunderground v.1.15,2013-09-06 13:05:00,
2013-09-06 09:10:00,62.0,58.7,30.24,SSE,162,0.0,5.0,89,0.00,,,0.00,Wunderground v.1.15,2013-09-06 13:10:00,
2013-09-06 09:15:00,62.1,58.8,30.24,SSE,162,0.0,5.0,89,0.00,,,0.00,Wunderground v.1.15,2013-09-06 13:15:00,
2013-09-06 09:20:00,62.3,59.0,30.24,SSE,162,0.0,5.0,89,0.00,,,0.00,Wunderground v.1.15,2013-09-06 13:20:00,
2013-09-06 09:30:00,62.6,59.3,30.24,SSE,162,0.0,5.0,89,0.00,,,0.00,Wunderground v.1.15,2013-09-06 13:30:00,
2013-09-06 09:40:00,62.9,59.9,30.24,SSE,162,0.0,5.0,90,0.00,,,0.00,Wunderground v.1.15,2013-09-06 13:40:00,
2013-09-06 09:45:00,63.3,60.3,30.24,SSE,162,0.0,5.0,90,0.00,,,0.00,Wunderground v.1.15,2013-09-06 13:45:00,
2013-09-06 09:50:00,63.8,60.5,30.24,SSE,162,0.0,5.0,89,0.00,,,0.00,Wunderground v.1.15,2013-09-06 13:50:00,
2013-09-06 09:55:00,64.5,60.9,30.24,SSE,162,0.0,5.0,88,0.00,,,0.00,Wunderground v.1.15,2013-09-06 13:55:00,
2013-09-06 10:00:00,65.4,62.1,30.24,SSE,162,0.0,5.0,89,0.00,,,0.00,Wunderground v.1.15,2013-09-06 14:00:00,
2013-09-06 10:05:00,66.2,62.2,30.24,SSE,162,0.0,5.0,87,0.00,,,0.00,Wunderground v.1.15,2013-09-06 14:05:00,
2013-09-06 10:10:00,66.8,62.1,30.24,SSE,162,0.0,5.0,85,0.00,,,0.00,Wunderground v.1.15,2013-09-06 14:10:00,
2013-09-06 10:15:00,67.2,62.5,30.25,SSE,162,0.0,5.0,85,0.00,,,0.00,Wunderground v.1.15,2013-09-06 14:15:00,
2013-09-06 10:20:00,68.0,62.6,30.25,SSE,162,0.0,5.0,83,0.00,,,0.00,Wunderground v.1.15,2013-09-06 14:20:00,
2013-09-06 10:25:00,68.7,63.0,30.25,SSE,162,0.0,5.0,82,0.00,,,0.00,Wunderground v.1.15,2013-09-06 14:25:00,
2013-09-06 10:30:00,69.4,62.6,30.25,SSE,162,0.0,5.0,79,0.00,,,0.00,Wunderground v.1.15,2013-09-06 14:30:00,
2013-09-06 10:35:00,69.8,63.0,30.25,SSE,162,0.0,5.0,79,0.00,,,0.00,Wunderground v.1.15,2013-09-06 14:35:00,
2013-09-06 10:40:00,70.2,63.0,30.25,SSE,162,0.0,5.0,78,0.00,,,0.00,Wunderground v.1.15,2013-09-06 14:40:00,
2013-09-06 10:45:00,70.6,61.5,30.25,West,265,0.0,5.0,73,0.00,,,0.00,Wunderground v.1.15,2013-09-06 14:45:00,
2013-09-06 10:50:00,70.9,63.0,30.25,West,279,0.0,5.0,76,0.00,,,0.00,Wunderground v.1.15,2013-09-06 14:50:00,
2013-09-06 10:55:00,71.4,62.3,30.25,SSW,202,0.0,5.0,73,0.00,,,0.00,Wunderground v.1.15,2013-09-06 14:55:00,
2013-09-06 11:00:00,71.8,62.3,30.26,WSW,246,1.0,5.0,72,0.00,,,0.00,Wunderground v.1.15,2013-09-06 15:00:00,
2013-09-06 11:10:00,71.7,62.6,30.26,WSW,248,1.0,1.0,73,0.00,,,0.00,Wunderground v.1.15,2013-09-06 15:10:00,
2013-09-06 11:20:00,71.7,63.0,30.26,ESE,121,1.0,5.0,74,0.00,,,0.00,Wunderground v.1.15,2013-09-06 15:20:00,
2013-09-06 11:25:00,71.9,63.2,30.26,WSW,251,1.0,5.0,74,0.00,,,0.00,Wunderground v.1.15,2013-09-06 15:25:00,
2013-09-06 11:30:00,72.6,63.4,30.25,WSW,251,1.0,1.0,73,0.00,,,0.00,Wunderground v.1.15,2013-09-06 15:30:00,
2013-09-06 11:35:00,72.3,62.8,30.26,South,176,0.0,2.0,72,0.00,,,0.00,Wunderground v.1.15,2013-09-06 15:35:00,
2013-09-06 11:40:00,72.3,61.6,30.26,South,169,1.0,1.0,69,0.00,,,0.00,Wunderground v.1.15,2013-09-06 15:40:00,
2013-09-06 11:45:00,71.7,62.2,30.26,ENE,78,1.0,5.0,72,0.00,,,0.00,Wunderground v.1.15,2013-09-06 15:45:00,
2013-09-06 11:50:00,71.2,62.9,30.25,SSW,194,1.0,5.0,75,0.00,,,0.00,Wunderground v.1.15,2013-09-06 15:50:00,
2013-09-06 11:55:00,71.3,61.4,30.25,WSW,258,1.0,5.0,71,0.00,,,0.00,Wunderground v.1.15,2013-09-06 15:55:00,
2013-09-06 12:00:00,71.1,63.1,30.25,WSW,257,1.0,1.0,76,0.00,,,0.00,Wunderground v.1.15,2013-09-06 16:00:00,
2013-09-06 12:05:00,71.1,62.0,30.25,WSW,257,1.0,5.0,73,0.00,,,0.00,Wunderground v.1.15,2013-09-06 16:05:00,
2013-09-06 12:10:00,71.7,62.2,30.24,WSW,252,0.0,5.0,72,0.00,,,0.00,Wunderground v.1.15,2013-09-06 16:10:00,
2013-09-06 12:15:00,72.4,61.7,30.24,WSW,257,1.0,5.0,69,0.00,,,0.00,Wunderground v.1.15,2013-09-06 16:15:00,
2013-09-06 12:20:00,72.6,62.7,30.24,SSW,192,1.0,5.0,71,0.00,,,0.00,Wunderground v.1.15,2013-09-06 16:20:00,
2013-09-06 12:25:00,73.0,62.2,30.24,SSE,152,1.0,5.0,69,0.00,,,0.00,Wunderground v.1.15,2013-09-06 16:25:00,
2013-09-06 12:30:00,72.6,61.4,30.24,ENE,57,1.0,5.0,68,0.00,,,0.00,Wunderground v.1.15,2013-09-06 16:30:00,
2013-09-06 12:35:00,72.3,61.6,30.24,ENE,63,1.0,5.0,69,0.00,,,0.00,Wunderground v.1.15,2013-09-06 16:35:00,
2013-09-06 12:40:00,73.2,62.4,30.24,SE,144,1.0,5.0,69,0.00,,,0.00,Wunderground v.1.15,2013-09-06 16:40:00,
2013-09-06 12:45:00,73.5,61.9,30.23,WSW,246,1.0,5.0,67,0.00,,,0.00,Wunderground v.1.15,2013-09-06 16:45:00,
2013-09-06 12:50:00,73.4,62.2,30.23,WSW,241,1.0,1.0,68,0.00,,,0.00,Wunderground v.1.15,2013-09-06 16:50:00,
2013-09-06 12:55:00,73.2,62.8,30.23,WSW,241,0.0,5.0,70,0.00,,,0.00,Wunderground v.1.15,2013-09-06 16:55:00,
2013-09-06 13:00:00,73.3,62.9,30.23,WSW,247,0.0,5.0,70,0.00,,,0.00,Wunderground v.1.15,2013-09-06 17:00:00,
2013-09-06 13:05:00,73.8,63.4,30.23,North,355,0.0,5.0,70,0.00,,,0.00,Wunderground v.1.15,2013-09-06 17:05:00,
2013-09-06 13:10:00,74.0,62.8,30.23,WNW,284,1.0,1.0,68,0.00,,,0.00,Wunderground v.1.15,2013-09-06 17:10:00,
2013-09-06 13:15:00,74.4,62.7,30.23,SSE,159,1.0,5.0,67,0.00,,,0.00,Wunderground v.1.15,2013-09-06 17:15:00,
2013-09-06 13:20:00,74.8,62.7,30.23,SSE,160,1.0,5.0,66,0.00,,,0.00,Wunderground v.1.15,2013-09-06 17:20:00,
2013-09-06 13:25:00,74.3,62.2,30.23,South,180,1.0,5.0,66,0.00,,,0.00,Wunderground v.1.15,2013-09-06 17:25:00,
2013-09-06 13:30:00,73.9,61.8,30.22,South,180,0.0,5.0,66,0.00,,,0.00,Wunderground v.1.15,2013-09-06 17:30:00,
2013-09-06 13:35:00,74.1,62.4,30.22,South,180,0.0,5.0,67,0.00,,,0.00,Wunderground v.1.15,2013-09-06 17:35:00,
2013-09-06 13:40:00,74.8,62.2,30.22,South,180,1.0,5.0,65,0.00,,,0.00,Wunderground v.1.15,2013-09-06 17:40:00,
2013-09-06 13:45:00,75.3,62.3,30.22,SW,227,1.0,5.0,64,0.00,,,0.00,Wunderground v.1.15,2013-09-06 17:45:00,
2013-09-06 13:50:00,75.8,63.2,30.22,SE,135,1.0,1.0,65,0.00,,,0.00,Wunderground v.1.15,2013-09-06 17:50:00,
2013-09-06 13:55:00,76.5,62.0,30.22,SE,134,1.0,3.0,61,0.00,,,0.00,Wunderground v.1.15,2013-09-06 17:55:00,
2013-09-06 14:00:00,76.6,61.2,30.21,SW,215,1.0,5.0,59,0.00,,,0.00,Wunderground v.1.15,2013-09-06 18:00:00,
2013-09-06 14:05:00,76.4,60.5,30.21,East,88,1.0,5.0,58,0.00,,,0.00,Wunderground v.1.15,2013-09-06 18:05:00,
2013-09-06 14:10:00,76.6,61.2,30.21,SE,133,1.0,1.0,59,0.00,,,0.00,Wunderground v.1.15,2013-09-06 18:10:00,
2013-09-06 14:15:00,76.7,62.2,30.21,South,175,1.0,5.0,61,0.00,,,0.00,Wunderground v.1.15,2013-09-06 18:15:00,
2013-09-06 14:20:00,76.7,62.7,30.20,SSW,194,0.0,5.0,62,0.00,,,0.00,Wunderground v.1.15,2013-09-06 18:20:00,
2013-09-06 14:25:00,77.1,63.1,30.20,SSW,196,0.0,5.0,62,0.00,,,0.00,Wunderground v.1.15,2013-09-06 18:25:00,
2013-09-06 14:30:00,77.5,62.5,30.20,ESE,114,1.0,1.0,60,0.00,,,0.00,Wunderground v.1.15,2013-09-06 18:30:00,
2013-09-06 14:35:00,77.7,63.6,30.20,ESE,115,0.0,5.0,62,0.00,,,0.00,Wunderground v.1.15,2013-09-06 18:35:00,
2013-09-06 14:40:00,77.7,62.2,30.20,WSW,256,0.0,5.0,59,0.00,,,0.00,Wunderground v.1.15,2013-09-06 18:40:00,
2013-09-06 14:45:00,77.5,61.6,30.20,SSE,161,1.0,5.0,58,0.00,,,0.00,Wunderground v.1.15,2013-09-06 18:45:00,
2013-09-06 14:50:00,77.4,61.5,30.20,SSW,205,1.0,1.0,58,0.00,,,0.00,Wunderground v.1.15,2013-09-06 18:50:00,
2013-09-06 14:55:00,77.5,63.0,30.19,WSW,244,0.0,5.0,61,0.00,,,0.00,Wunderground v.1.15,2013-09-06 18:55:00,
2013-09-06 15:00:00,77.5,62.5,30.19,SE,126,0.0,5.0,60,0.00,,,0.00,Wunderground v.1.15,2013-09-06 19:00:00,
2013-09-06 15:05:00,77.6,61.7,30.19,SW,234,0.0,5.0,58,0.00,,,0.00,Wunderground v.1.15,2013-09-06 19:05:00,
2013-09-06 15:10:00,77.4,62.9,30.19,WNW,282,1.0,5.0,61,0.00,,,0.00,Wunderground v.1.15,2013-09-06 19:10:00,
2013-09-06 15:15:00,77.5,63.0,30.19,South,185,1.0,5.0,61,0.00,,,0.00,Wunderground v.1.15,2013-09-06 19:15:00,
2013-09-06 15:20:00,77.4,61.5,30.18,SSE,166,1.0,5.0,58,0.00,,,0.00,Wunderground v.1.15,2013-09-06 19:20:00,
2013-09-06 15:25:00,77.3,61.9,30.18,South,184,1.0,5.0,59,0.00,,,0.00,Wunderground v.1.15,2013-09-06 19:25:00,
2013-09-06 15:30:00,77.4,61.5,30.18,South,184,1.0,1.0,58,0.00,,,0.00,Wunderground v.1.15,2013-09-06 19:30:00,
2013-09-06 15:35:00,77.3,61.4,30.17,South,184,1.0,5.0,58,0.00,,,0.00,Wunderground v.1.15,2013-09-06 19:35:00,
2013-09-06 15:40:00,77.3,62.8,30.17,South,184,0.0,5.0,61,0.00,,,0.00,Wunderground v.1.15,2013-09-06 19:40:00,
2013-09-06 15:45:00,77.8,63.7,30.17,South,184,0.0,5.0,62,0.00,,,0.00,Wunderground v.1.15,2013-09-06 19:45:00,
2013-09-06 15:50:00,78.0,62.5,30.17,SSW,201,0.0,5.0,59,0.00,,,0.00,Wunderground v.1.15,2013-09-06 19:50:00,
2013-09-06 15:55:00,77.6,62.1,30.17,SSE,165,1.0,5.0,59,0.00,,,0.00,Wunderground v.1.15,2013-09-06 19:55:00,
2013-09-06 16:00:00,77.5,62.0,30.17,SSE,165,0.0,5.0,59,0.00,,,0.00,Wunderground v.1.15,2013-09-06 20:00:00,
2013-09-06 16:05:00,77.1,63.1,30.16,SW,221,0.0,5.0,62,0.00,,,0.00,Wunderground v.1.15,2013-09-06 20:05:00,
2013-09-06 16:10:00,76.6,61.2,30.16,South,186,1.0,1.0,59,0.00,,,0.00,Wunderground v.1.15,2013-09-06 20:10:00,
2013-09-06 16:15:00,76.4,62.4,30.16,South,186,0.0,5.0,62,0.00,,,0.00,Wunderground v.1.15,2013-09-06 20:15:00,
2013-09-06 16:20:00,76.4,62.9,30.16,SSW,192,0.0,5.0,63,0.00,,,0.00,Wunderground v.1.15,2013-09-06 20:20:00,
2013-09-06 16:25:00,76.0,63.4,30.16,SSW,192,1.0,5.0,65,0.00,,,0.00,Wunderground v.1.15,2013-09-06 20:25:00,
2013-09-06 16:30:00,75.8,62.3,30.16,East,85,1.0,1.0,63,0.00,,,0.00,Wunderground v.1.15,2013-09-06 20:30:00,
2013-09-06 16:35:00,75.7,61.8,30.15,SSE,163,1.0,2.0,62,0.00,,,0.00,Wunderground v.1.15,2013-09-06 20:35:00,
2013-09-06 16:40:00,75.6,62.6,30.15,NW,304,1.0,1.0,64,0.00,,,0.00,Wunderground v.1.15,2013-09-06 20:40:00,
2013-09-06 16:45:00,75.6,62.6,30.15,SSW,206,0.0,5.0,64,0.00,,,0.00,Wunderground v.1.15,2013-09-06 20:45:00,
2013-09-06 16:50:00,75.5,62.0,30.15,South,186,1.0,1.0,63,0.00,,,0.00,Wunderground v.1.15,2013-09-06 20:50:00,
2013-09-06 16:55:00,75.5,62.5,30.15,South,186,1.0,5.0,64,0.00,,,0.00,Wunderground v.1.15,2013-09-06 20:55:00,
2013-09-06 17:00:00,75.4,61.9,30.15,South,187,1.0,1.0,63,0.00,,,0.00,Wunderground v.1.15,2013-09-06 21:00:00,
2013-09-06 17:05:00,75.3,61.8,30.15,South,187,0.0,5.0,63,0.00,,,0.00,Wunderground v.1.15,2013-09-06 21:05:00,
2013-09-06 17:10:00,75.1,62.1,30.15,SSW,198,0.0,5.0,64,0.00,,,0.00,Wunderground v.1.15,2013-09-06 21:10:00,
2013-09-06 17:15:00,75.1,63.4,30.15,SSE,164,0.0,5.0,67,0.00,,,0.00,Wunderground v.1.15,2013-09-06 21:15:00,
2013-09-06 17:20:00,75.0,62.9,30.15,South,169,1.0,1.0,66,0.00,,,0.00,Wunderground v.1.15,2013-09-06 21:20:00,
2013-09-06 17:25:00,75.1,62.5,30.15,South,170,1.0,5.0,65,0.00,,,0.00,Wunderground v.1.15,2013-09-06 21:25:00,
2013-09-06 17:35:00,75.0,63.3,30.15,South,170,0.0,5.0,67,0.00,,,0.00,Wunderground v.1.15,2013-09-06 21:35:00,
2013-09-06 17:40:00,75.0,62.0,30.15,South,170,1.0,1.0,64,0.00,,,0.00,Wunderground v.1.15,2013-09-06 21:40:00,
2013-09-06 17:50:00,75.0,62.4,30.15,South,174,1.0,5.0,65,0.00,,,0.00,Wunderground v.1.15,2013-09-06 21:50:00,
2013-09-06 17:55:00,74.9,63.2,30.15,SSW,207,1.0,5.0,67,0.00,,,0.00,Wunderground v.1.15,2013-09-06 21:55:00,
2013-09-06 18:00:00,75.0,62.0,30.15,SSW,207,0.0,5.0,64,0.00,,,0.00,Wunderground v.1.15,2013-09-06 22:00:00,
2013-09-06 18:10:00,75.5,62.9,30.15,SSW,207,0.0,5.0,65,0.00,,,0.00,Wunderground v.1.15,2013-09-06 22:10:00,
2013-09-06 18:15:00,75.6,62.6,30.15,SSW,207,0.0,5.0,64,0.00,,,0.00,Wunderground v.1.15,2013-09-06 22:15:00,
2013-09-06 18:20:00,75.6,63.0,30.15,SSW,207,0.0,5.0,65,0.00,,,0.00,Wunderground v.1.15,2013-09-06 22:20:00,
2013-09-06 18:25:00,75.4,62.4,30.15,SSW,207,0.0,5.0,64,0.00,,,0.00,Wunderground v.1.15,2013-09-06 22:25:00,
2013-09-06 18:30:00,75.2,63.5,30.15,SSW,207,0.0,5.0,67,0.00,,,0.00,Wunderground v.1.15,2013-09-06 22:30:00,
2013-09-06 18:35:00,75.2,63.9,30.15,SSW,207,0.0,5.0,68,0.00,,,0.00,Wunderground v.1.15,2013-09-06 22:35:00,
2013-09-06 18:40:00,75.1,64.2,30.15,SSW,207,0.0,5.0,69,0.00,,,0.00,Wunderground v.1.15,2013-09-06 22:40:00,
2013-09-06 18:45:00,74.9,64.0,30.15,SSW,192,0.0,5.0,69,0.00,,,0.00,Wunderground v.1.15,2013-09-06 22:45:00,
2013-09-06 18:55:00,75.1,64.2,30.15,SSW,192,0.0,5.0,69,0.00,,,0.00,Wunderground v.1.15,2013-09-06 22:55:00,
2013-09-06 19:00:00,74.9,64.5,30.15,SSW,192,0.0,5.0,70,0.00,,,0.00,Wunderground v.1.15,2013-09-06 23:00:00,
2013-09-06 19:10:00,74.0,64.0,30.14,SSW,192,0.0,5.0,71,0.00,,,0.00,Wunderground v.1.15,2013-09-06 23:10:00,
2013-09-06 19:15:00,73.5,64.3,30.14,SSW,192,0.0,5.0,73,0.00,,,0.00,Wunderground v.1.15,2013-09-06 23:15:00,
2013-09-06 19:20:00,72.9,64.5,30.15,SSW,192,0.0,5.0,75,0.00,,,0.00,Wunderground v.1.15,2013-09-06 23:20:00,
2013-09-06 19:25:00,72.2,63.8,30.15,SSW,192,0.0,5.0,75,0.00,,,0.00,Wunderground v.1.15,2013-09-06 23:25:00,
2013-09-06 19:30:00,71.6,63.6,30.15,South,190,0.0,5.0,76,0.00,,,0.00,Wunderground v.1.15,2013-09-06 23:30:00,
2013-09-06 19:35:00,71.0,63.4,30.14,South,190,0.0,5.0,77,0.00,,,0.00,Wunderground v.1.15,2013-09-06 23:35:00,
2013-09-06 19:40:00,70.4,63.6,30.14,South,190,0.0,5.0,79,0.00,,,0.00,Wunderground v.1.15,2013-09-06 23:40:00,
2013-09-06 19:50:00,69.5,63.4,30.14,South,190,0.0,5.0,81,0.00,,,0.00,Wunderground v.1.15,2013-09-06 23:50:00,
2013-09-06 19:55:00,69.2,63.5,30.14,South,190,0.0,5.0,82,0.00,,,0.00,Wunderground v.1.15,2013-09-06 23:55:00,
2013-09-06 20:00:00,68.9,63.2,30.14,South,190,0.0,5.0,82,0.00,,,0.00,Wunderground v.1.15,2013-09-07 00:00:00,
2013-09-06 20:10:00,68.3,62.9,30.15,South,190,0.0,5.0,83,0.00,,,0.00,Wunderground v.1.15,2013-09-07 00:10:00,
2013-09-06 20:15:00,68.2,62.8,30.15,South,190,0.0,5.0,83,0.00,,,0.00,Wunderground v.1.15,2013-09-07 00:15:00,
2013-09-06 20:20:00,68.1,62.7,30.15,South,190,0.0,5.0,83,0.00,,,0.00,Wunderground v.1.15,2013-09-07 00:20:00,
2013-09-06 20:25:00,67.9,62.5,30.15,South,190,0.0,5.0,83,0.00,,,0.00,Wunderground v.1.15,2013-09-07 00:25:00,
2013-09-06 20:30:00,67.8,62.4,30.15,South,190,0.0,5.0,83,0.00,,,0.00,Wunderground v.1.15,2013-09-07 00:30:00,
2013-09-06 20:40:00,67.6,62.6,30.16,South,190,0.0,5.0,84,0.00,,,0.00,Wunderground v.1.15,2013-09-07 00:40:00,
2013-09-06 20:45:00,67.6,62.6,30.16,South,190,0.0,5.0,84,0.00,,,0.00,Wunderground v.1.15,2013-09-07 00:45:00,
2013-09-06 20:50:00,67.5,62.5,30.16,South,190,0.0,5.0,84,0.00,,,0.00,Wunderground v.1.15,2013-09-07 00:50:00,
2013-09-06 20:55:00,67.4,62.4,30.16,South,175,0.0,5.0,84,0.00,,,0.00,Wunderground v.1.15,2013-09-07 00:55:00,
2013-09-06 21:00:00,67.4,62.4,30.16,SSE,165,0.0,5.0,84,0.00,,,0.00,Wunderground v.1.15,2013-09-07 01:00:00,
2013-09-06 21:10:00,67.1,62.4,30.17,SSE,165,0.0,5.0,85,0.00,,,0.00,Wunderground v.1.15,2013-09-07 01:10:00,
2013-09-06 21:15:00,67.0,62.7,30.17,SSE,165,0.0,5.0,86,0.00,,,0.00,Wunderground v.1.15,2013-09-07 01:15:00,
2013-09-06 21:20:00,66.9,62.6,30.17,SSE,165,0.0,5.0,86,0.00,,,0.00,Wunderground v.1.15,2013-09-07 01:20:00,
2013-09-06 21:25:00,66.8,62.1,30.17,SSE,165,0.0,5.0,85,0.00,,,0.00,Wunderground v.1.15,2013-09-07 01:25:00,
2013-09-06 21:30:00,66.7,62.0,30.17,SSE,165,0.0,5.0,85,0.00,,,0.00,Wunderground v.1.15,2013-09-07 01:30:00,
2013-09-06 21:35:00,66.7,62.0,30.17,SSE,165,0.0,5.0,85,0.00,,,0.00,Wunderground v.1.15,2013-09-07 01:35:00,
2013-09-06 21:40:00,66.6,61.9,30.17,SSE,165,0.0,5.0,85,0.00,,,0.00,Wunderground v.1.15,2013-09-07 01:40:00,
2013-09-06 21:45:00,66.5,61.8,30.18,SSE,165,0.0,5.0,85,0.00,,,0.00,Wunderground v.1.15,2013-09-07 01:45:00,
2013-09-06 21:50:00,66.4,61.8,30.18,SSE,165,0.0,5.0,85,0.00,,,0.00,Wunderground v.1.15,2013-09-07 01:50:00,
2013-09-06 21:55:00,66.3,61.7,30.18,SSE,165,0.0,5.0,85,0.00,,,0.00,Wunderground v.1.15,2013-09-07 01:55:00,
2013-09-06 22:00:00,66.3,62.0,30.18,South,179,0.0,5.0,86,0.00,,,0.00,Wunderground v.1.15,2013-09-07 02:00:00,
2013-09-06 22:05:00,66.2,61.9,30.18,South,179,0.0,5.0,86,0.00,,,0.00,Wunderground v.1.15,2013-09-07 02:05:00,
2013-09-06 22:10:00,66.2,61.9,30.19,SSW,200,0.0,5.0,86,0.00,,,0.00,Wunderground v.1.15,2013-09-07 02:10:00,
2013-09-06 22:15:00,66.1,61.5,30.18,South,183,1.0,5.0,85,0.00,,,0.00,Wunderground v.1.15,2013-09-07 02:15:00,
2013-09-06 22:25:00,66.1,61.5,30.18,South,175,0.0,5.0,85,0.00,,,0.00,Wunderground v.1.15,2013-09-07 02:25:00,
2013-09-06 22:30:00,66.0,61.7,30.18,South,175,0.0,5.0,86,0.00,,,0.00,Wunderground v.1.15,2013-09-07 02:30:00,
2013-09-06 22:35:00,65.9,61.9,30.18,South,175,0.0,5.0,87,0.00,,,0.00,Wunderground v.1.15,2013-09-07 02:35:00,
2013-09-06 22:40:00,65.9,61.9,30.18,South,184,0.0,5.0,87,0.00,,,0.00,Wunderground v.1.15,2013-09-07 02:40:00,
2013-09-06 22:45:00,65.8,62.1,30.18,South,184,1.0,5.0,88,0.00,,,0.00,Wunderground v.1.15,2013-09-07 02:45:00,
2013-09-06 22:50:00,65.8,62.5,30.18,South,184,0.0,5.0,89,0.00,,,0.00,Wunderground v.1.15,2013-09-07 02:50:00,
2013-09-06 22:55:00,65.8,62.5,30.18,South,184,0.0,5.0,89,0.00,,,0.00,Wunderground v.1.15,2013-09-07 02:55:00,
2013-09-06 23:00:00,65.8,62.1,30.18,South,178,0.0,5.0,88,0.00,,,0.00,Wunderground v.1.15,2013-09-07 03:00:00,
2013-09-06 23:05:00,65.7,62.0,30.18,South,178,0.0,5.0,88,0.00,,,0.00,Wunderground v.1.15,2013-09-07 03:05:00,
2013-09-06 23:10:00,65.7,62.0,30.18,South,178,0.0,5.0,88,0.00,,,0.00,Wunderground v.1.15,2013-09-07 03:10:00,
2013-09-06 23:15:00,65.6,61.9,30.18,South,178,0.0,5.0,88,0.00,,,0.00,Wunderground v.1.15,2013-09-07 03:15:00,
2013-09-06 23:20:00,65.6,61.6,30.18,South,178,0.0,5.0,87,0.00,,,0.00,Wunderground v.1.15,2013-09-07 03:20:00,
2013-09-06 23:25:00,65.5,61.5,30.18,South,178,0.0,5.0,87,0.00,,,0.00,Wunderground v.1.15,2013-09-07 03:25:00,
2013-09-06 23:30:00,65.5,61.5,30.18,South,178,0.0,5.0,87,0.00,,,0.00,Wunderground v.1.15,2013-09-07 03:30:00,
2013-09-06 23:35:00,65.4,61.8,30.18,South,178,0.0,5.0,88,0.00,,,0.00,Wunderground v.1.15,2013-09-07 03:35:00,
2013-09-06 23:40:00,65.4,61.8,30.18,South,178,0.0,5.0,88,0.00,,,0.00,Wunderground v.1.15,2013-09-07 03:40:00,
2013-09-06 23:45:00,65.3,61.7,30.18,South,178,0.0,5.0,88,0.00,,,0.00,Wunderground v.1.15,2013-09-07 03:45:00,
2013-09-06 23:50:00,65.3,61.7,30.18,South,178,0.0,5.0,88,0.00,,,0.00,Wunderground v.1.15,2013-09-07 03:50:00,
2013-09-06 23:55:00,65.2,61.6,30.18,South,178,0.0,5.0,88,0.00,,,0.00,Wunderground v.1.15,2013-09-07 03:55:00,